TELSTAR 12 (ORION 2)

Last updated on Thu Dec 17 2020 06:14:33 GMT+0000 (Coordinated Universal Time)

1 25949U 99059A 20350.42465234 -.00000011 00000-0 00000+0 0 9993 2 25949 3.7326 82.3355 0024896 262.5510 142.8989 0.99921397 77372
UTC large
Height (km)
Speed (km/s)
/
Latitude / Longitude
Inclination (degrees)
Orbital Period (minutes)
Azimuth
Elevation
Range (km)
Doppler Factor

Next 0 passes for location: London (51.5072 / 0.1276)

Sorry there are no passes over London.